Find Praetorian SDA-605

NORAD ID: 65568 Int'l Des: 2025-203 Owner: SDA Country: US operational
LEOCIRCULARPOLAR

現在のビュー

3D地球を読み込み中...

Praetorian SDA-605について

説明を読み込み中...

次回通過

Passes for default location (London). Set your location on the main map for personalized predictions.

高度履歴

Loading altitude history...

軌道要素

1 65568U 25203D 26149.59321160 .00000123 00000-0 10143-3 0 9999
2 65568 81.3033 27.9617 0007283 237.5975 122.4477 13.83432336 36125
Epoch: May 29, 2026 • Age: 13 hours

現在のステータス

高度 952.4 km
速度 7.38 km/s
衛星直下点 16.57°N, 90.4°W
打ち上げ日 Sep 10, 2025
運用期間 0.7 years
タイプ other

技術仕様

分類 Payload
質量 300.00 kg
乾燥質量 300.00 kg
総質量 300.00 kg
長さ 1.00 m
直径 0.60 m
スパン 2.00 m
形状 Box + panels
製造者 YORKSS
バスタイプ S-Class
フェーズステータス In Orbit
所有者/国 SDA/US

Most Searched